Wind_Speed
16 17 18 20 20 22 24 25 25 25 25 25 25 27 28 30 32 33 35 36 37 38 40 42 43 43 44 44 44 45 45 46 46 46 47 47 47 47 47 48 48 48 47 47
16 18 19 20 20 21 23 25 25 26 26 27 27 27 27 29 30 31 32 33 35 36 38 39 41 42 43 44 44 44 44 44 44 44 45 46 47 47 48 48 48 49 49 49
17 18 20 21 22 24 24 24 25 25 25 27 28 29 29 29 30 31 32 33 33 35 36 39 40 41 42 43 43 43 43 43 43 43 43 44 45 46 46 47 48 48 48 48
19 19 21 21 22 23 25 25 26 27 26 27 27 28 29 30 30 31 32 33 34 35 35 37 39 40 41 42 42 43 43 43 43 44 44 44 45 45 46 47 47 46 46 46
19 21 20 20 22 23 24 25 26 26 27 27 28 29 29 30 30 31 32 34 35 35 35 36 37 38 39 40 41 42 43 43 43 44 44 44 44 45 45 45 45 45 45 45
20 21 20 19 20 22 23 24 24 25 27 28 30 30 29 31 31 31 32 32 33 34 34 35 36 37 37 38 39 40 42 43 43 44 44 44 44 44 44 45 45 45 45 45
20 21 21 21 22 22 24 25 26 26 27 28 29 29 29 30 30 30 31 31 32 32 33 34 35 36 37 38 39 40 40 41 42 43 43 43 43 44 44 44 44 45 45 45
20 21 21 22 23 24 24 25 26 27 27 28 29 29 29 29 29 30 31 31 32 33 33 34 35 36 37 37 38 39 40 40 40 41 41 42 42 42 42 43 43 43 43 43
20 20 21 22 24 25 26 27 26 25 27 28 29 29 29 29 30 30 31 32 32 33 34 35 35 36 36 37 38 39 39 39 39 40 40 40 40 40 41 41 42 42 42 42
20 20 20 21 22 24 25 25 26 26 26 27 27 28 27 27 28 29 31 31 32 32 32 33 35 36 36 36 36 38 38 39 39 39 40 40 40 40 40 40 40 40 41 41
20 20 21 22 23 24 25 25 26 26 26 26 26 27 27 26 27 28 29 30 30 31 32 32 32 33 33 34 34 35 36 37 38 38 39 39 39 38 38 38 38 38 39 39
21 22 23 24 25 25 26 26 26 26 26 27 26 27 27 27 27 27 28 29 29 30 31 30 30 30 31 32 33 33 33 35 36 37 37 37 37 36 36 36 36 36 37 37
23 24 24 25 25 26 26 26 26 27 27 27 27 27 27 27 26 26 27 28 29 29 30 30 29 29 30 30 31 31 32 33 34 34 34 34 35 35 35 35 35 35 34 34
23 23 23 23 24 24 25 25 25 26 27 27 27 27 27 27 26 26 26 27 27 28 29 29 30 30 30 30 31 31 31 32 32 32 32 32 32 33 33 33 33 33 33 32
23 23 23 23 23 23 23 23 24 24 25 26 26 26 27 27 28 28 28 27 28 28 28 29 29 29 29 30 30 30 31 31 32 32 32 31 31 31 31 31 31 31 31 31
22 22 22 22 22 22 22 23 23 23 24 24 25 26 26 27 27 28 28 28 28 28 28 28 29 29 29 29 29 30 30 31 30 30 31 31 31 31 31 30 30 30 30 29
23 22 22 21 21 21 22 22 22 23 23 23 24 25 26 26 26 27 27 28 28 28 28 28 28 28 28 29 29 29 29 29 29 29 29 30 29 29 29 28 28 27 27 27
23 23 22 21 21 21 22 22 22 22 22 23 24 25 25 25 25 25 25 25 26 26 26 26 27 27 27 28 29 29 29 28 28 28 28 28 27 26 26 26 26 26 26 26
23 22 22 22 22 22 22 22 22 22 22 23 23 24 24 24 24 24 24 24 24 24 24 24 24 25 25 25 26 26 26 26 26 26 25 24 24 24 24 24 24 24 24 24
24 24 23 23 23 23 23 23 24 23 23 23 23 23 23 24 24 24 24 24 23 23 23 23 22 22 21 22 23 23 23 23 24 24 24 23 22 23 23 23 22 22 22 23
24 24 23 23 23 23 24 24 24 24 24 24 24 24 24 24 24 24 24 24 24 23 23 22 21 21 21 21 21 21 21 22 22 22 22 22 22 22 22 23 23 23 23 22
23 23 23 23 24 24 24 24 24 24 25 24 24 24 24 23 23 23 23 23 23 23 22 22 22 22 22 22 22 21 21 21 22 22 21 21 22 22 22 22 22 22 22 22
23 22 23 23 23 24 23 23 23 23 23 23 23 22 23 22 22 23 23 23 23 23 23 23 23 22 22 22 22 22 22 21 21 21 21 22 22 22 22 22 22 22 22 22
22 22 22 23 23 22 22 22 22 23 23 22 22 22 22 23 23 23 23 22 22 23 23 22 22 22 22 22 22 22 22 22 21 21 21 22 22 21 21 21 21 22 22 22
22 22 22 23 22 22 22 23 23 23 23 23 22 22 22 22 22 22 22 22 22 22 22 21 21 21 21 21 21 22 22 22 22 22 21 21 21 21 21 21 21 20 20 20
22 22 23 23 22 22 22 23 23 23 23 22 22 22 21 21 21 21 21 21 21 21 21 21 21 20 20 21 21 21 21 22 22 22 21 21 21 21 21 21 20 20 19 19
22 22 22 23 22 22 22 23 23 22 22 22 22 21 21 21 21 21 21 21 21 21 21 21 21 21 21 21 21 21 21 21 21 22 22 21 20 20 20 20 20 19 18 18
Wind_Direction
256 251 249 247 248 250 248 248 248 248 251 250 249 249 246 245 244 244 244 245 246 246 246 246 246 247 247 248 250 252 253 255 257 258 258 259 260 261 261 262 264 266 267 268
259 254 251 248 247 249 249 249 249 251 252 253 253 251 248 247 248 247 246 245 246 246 246 246 247 248 248 250 252 253 254 255 257 257 258 259 260 261 261 263 265 266 268 269
262 257 253 250 249 250 249 250 249 251 254 256 256 253 251 252 251 251 250 248 249 249 249 248 248 249 249 250 251 253 254 255 256 257 258 260 260 260 263 265 266 268 269 270
265 260 258 253 252 253 253 252 253 253 254 256 257 256 254 254 253 252 251 250 250 250 250 250 250 250 250 250 252 254 255 255 256 257 259 260 262 263 264 265 266 268 268 270
273 267 263 257 254 254 255 252 252 254 255 256 255 255 255 257 256 253 251 250 250 250 250 250 250 250 252 253 254 254 255 256 257 258 260 261 263 264 265 266 267 267 268 269
277 273 268 264 259 256 255 254 254 257 257 257 256 256 256 258 257 255 253 252 253 252 251 251 251 251 252 253 253 254 255 256 258 259 261 262 263 264 266 266 267 267 268 269
278 276 271 268 266 263 260 259 259 260 260 259 259 260 259 258 257 257 256 255 254 253 252 252 253 253 254 254 254 255 256 257 258 260 261 262 264 265 265 266 266 267 268 269
279 277 273 270 269 267 266 265 264 262 261 261 261 261 260 258 258 258 257 256 255 254 254 254 254 255 256 256 255 256 256 257 259 260 261 262 264 265 265 265 266 267 268 269
280 278 274 271 270 268 267 266 266 265 264 263 262 261 261 260 259 259 259 258 258 257 255 256 257 257 257 257 257 257 257 257 258 259 261 263 264 265 265 266 267 267 268 268
281 279 275 273 271 269 267 267 266 265 266 266 265 263 263 263 262 260 260 259 258 258 257 257 257 257 257 257 256 257 258 258 258 260 261 262 262 264 265 266 267 267 268 269
282 279 276 276 274 272 270 268 265 265 265 266 266 264 263 264 264 261 259 258 258 258 258 259 259 259 258 258 259 259 259 258 259 260 261 261 262 264 265 265 267 268 269 269
285 283 281 279 277 275 274 270 267 265 265 264 265 264 265 265 265 263 259 257 257 258 260 260 259 259 260 261 262 261 260 260 260 260 261 261 262 263 264 266 267 269 270 270
286 285 283 282 280 278 275 272 269 267 266 265 265 264 263 263 264 264 261 260 260 260 261 261 261 260 261 261 261 262 262 262 261 260 260 261 262 264 265 266 267 268 270 270
287 286 284 283 281 280 278 274 271 269 267 265 264 264 263 262 263 265 264 263 262 262 261 261 260 261 262 262 262 263 262 262 261 260 260 260 261 264 265 266 266 267 268 269
288 286 285 282 282 282 280 277 273 271 269 265 264 264 264 263 263 264 264 264 263 263 262 262 261 261 261 262 263 263 263 262 260 259 259 259 261 264 266 265 265 266 267 268
290 289 287 284 283 282 282 281 278 276 272 267 265 265 264 263 262 263 263 264 263 262 262 262 262 262 263 264 264 264 263 261 259 258 259 259 260 262 264 265 265 266 267 269
290 289 288 287 285 284 284 284 282 279 274 269 267 267 266 265 264 264 264 264 263 263 263 262 262 262 263 263 263 264 262 259 257 258 259 261 262 263 263 264 264 265 266 267
290 289 287 286 285 284 283 283 282 279 275 272 269 267 266 265 265 266 266 266 264 263 263 264 264 263 262 262 263 263 262 261 260 260 260 260 260 260 261 261 261 263 264 267
288 288 287 286 285 284 284 283 282 281 279 275 271 269 267 266 264 264 263 263 264 263 264 264 264 264 265 263 262 261 260 259 259 257 256 257 258 258 258 258 259 261 263 265
288 288 287 286 285 285 285 284 283 280 278 276 273 270 268 267 264 263 263 263 264 263 263 265 267 267 267 265 262 260 257 256 255 255 254 254 256 257 257 257 258 260 262 266
288 287 287 285 284 284 283 282 281 279 277 276 273 271 268 266 264 263 262 263 264 264 265 266 267 266 266 264 260 257 255 254 253 253 252 253 255 256 258 258 259 261 263 266
288 288 287 286 284 284 284 282 280 278 277 276 274 270 267 265 263 262 262 263 264 264 264 264 264 264 263 262 259 256 255 255 255 254 254 254 254 255 257 259 260 261 263 266
289 289 289 288 286 286 284 282 281 280 279 277 274 270 267 265 263 261 261 261 261 262 263 263 262 261 260 258 256 255 254 255 256 256 255 255 256 257 258 260 260 260 261 265
288 289 290 290 289 287 284 283 282 281 279 277 274 271 268 265 262 260 259 260 261 262 263 262 262 260 258 256 254 252 252 253 255 256 256 256 257 258 258 259 260 261 262 265
287 289 291 292 289 286 283 283 283 281 278 276 274 270 267 264 262 259 258 258 259 261 261 260 260 258 256 255 254 252 251 251 253 255 256 256 256 257 257 259 261 262 263 265
287 288 289 290 288 286 284 283 283 281 278 275 272 269 265 262 260 259 257 257 258 259 258 257 256 255 254 253 253 252 252 252 253 254 255 255 255 255 256 257 258 259 261 263
287 288 289 291 290 287 285 284 283 281 277 275 271 267 264 262 260 258 257 257 258 257 257 257 255 254 254 253 253 253 253 254 254 253 252 252 254 254 254 254 255 256 260 261
Height
5600 5600 5601 5602 5604 5605 5606 5608 5610 5612 5613 5615 5616 5618 5620 5621 5623 5625 5628 5630 5632 5635 5637 5640 5643 5646 5649 5652 5655 5657 5659 5661 5663 5665 5666 5668 5669 5670 5671 5672 5673 5673 5673 5673
5596 5596 5596 5597 5598 5599 5601 5602 5604 5606 5608 5608 5610 5611 5613 5614 5616 5618 5620 5622 5623 5626 5628 5630 5633 5636 5639 5642 5644 5646 5648 5650 5652 5653 5655 5656 5658 5658 5659 5660 5661 5661 5661 5661
5591 5591 5591 5592 5594 5594 5596 5597 5598 5600 5602 5602 5604 5605 5606 5607 5608 5610 5611 5613 5615 5617 5618 5621 5623 5626 5629 5631 5633 5635 5637 5639 5641 5642 5644 5645 5646 5647 5648 5648 5649 5649 5649 5649
5586 5586 5586 5590 5588 5589 5590 5591 5592 5593 5595 5595 5597 5598 5598 5599 5601 5602 5603 5605 5606 5608 5610 5611 5613 5616 5618 5620 5623 5625 5627 5629 5630 5631 5633 5633 5634 5635 5636 5636 5637 5637 5637 5637
5581 5580 5580 5582 5582 5583 5584 5585 5586 5586 5587 5588 5589 5590 5591 5592 5593 5594 5595 5596 5598 5599 5601 5602 5604 5606 5608 5610 5612 5614 5616 5617 5619 5620 5621 5622 5623 5624 5624 5625 5625 5625 5625 5625
5576 5574 5575 5577 5576 5576 5578 5578 5579 5579 5580 5581 5581 5583 5585 5584 5584 5585 5586 5587 5589 5590 5591 5593 5594 5596 5598 5600 5602 5603 5605 5606 5607 5609 5610 5611 5611 5612 5612 5613 5613 5613 5614 5614
5570 5569 5569 5570 5569 5569 5572 5573 5572 5572 5572 5573 5573 5574 5575 5575 5576 5576 5578 5579 5580 5581 5583 5584 5585 5586 5588 5590 5591 5592 5593 5595 5596 5597 5598 5599 5600 5600 5601 5601 5602 5602 5602 5602
5564 5563 5566 5563 5563 5564 5565 5564 5564 5564 5564 5564 5565 5565 5566 5566 5567 5568 5569 5570 5571 5572 5573 5574 5575 5576 5578 5579 5580 5581 5583 5584 5585 5586 5586 5587 5588 5588 5589 5589 5590 5590 5591 5591
5559 5560 5558 5556 5556 5556 5556 5557 5557 5557 5557 5557 5557 5557 5557 5558 5558 5559 5559 5561 5561 5562 5564 5564 5565 5566 5567 5568 5569 5570 5571 5572 5573 5574 5575 5576 5577 5577 5577 5578 5578 5579 5579 5579
5552 5552 5551 5549 5549 5549 5549 5549 5549 5549 5549 5549 5549 5549 5549 5549 5550 5550 5550 5551 5552 5553 5554 5554 5555 5556 5557 5557 5558 5559 5560 5561 5562 5563 5564 5565 5565 5566 5566 5567 5567 5567 5568 5568
5545 5545 5544 5543 5542 5541 5541 5541 5541 5541 5541 5541 5541 5541 5541 5541 5541 5541 5541 5541 5542 5543 5544 5544 5545 5546 5546 5547 5547 5548 5549 5550 5551 5552 5553 5553 5554 5555 5555 5556 5556 5557 5556 5556
5539 5538 5537 5536 5535 5534 5533 5533 5533 5533 5533 5532 5532 5533 5533 5532 5532 5532 5533 5533 5533 5534 5534 5535 5535 5536 5536 5537 5537 5538 5538 5539 5540 5541 5542 5543 5544 5544 5544 5545 5545 5545 5545 5545
5532 5530 5529 5528 5527 5526 5525 5525 5524 5524 5524 5524 5524 5524 5524 5524 5524 5524 5524 5524 5524 5525 5525 5526 5526 5526 5527 5527 5527 5528 5528 5529 5530 5530 5531 5532 5533 5534 5534 5535 5535 5535 5535 5535
5524 5522 5521 5520 5519 5518 5517 5516 5516 5515 5515 5515 5515 5515 5515 5515 5515 5515 5515 5515 5515 5515 5516 5516 5517 5517 5517 5518 5518 5518 5518 5519 5520 5520 5521 5522 5523 5524 5524 5525 5525 5525 5525 5525
5517 5515 5514 5512 5511 5510 5509 5508 5507 5506 5506 5506 5506 5506 5506 5506 5506 5506 5506 5506 5506 5507 5507 5507 5507 5508 5508 5508 5508 5508 5509 5509 5510 5511 5511 5512 5513 5514 5514 5515 5515 5515 5515 5515
5509 5507 5506 5504 5503 5502 5501 5500 5499 5498 5497 5497 5497 5497 5497 5497 5497 5497 5497 5497 5497 5498 5498 5498 5498 5499 5499 5499 5499 5499 5499 5500 5500 5501 5502 5503 5504 5505 5505 5506 5506 5506 5506 5507
5501 5499 5498 5497 5496 5495 5493 5492 5491 5490 5489 5489 5489 5488 5488 5488 5488 5488 5488 5488 5488 5488 5489 5489 5489 5489 5489 5490 5490 5490 5490 5490 5491 5492 5493 5494 5495 5496 5496 5497 5497 5497 5498 5498
5493 5492 5490 5489 5488 5487 5486 5484 5483 5482 5481 5480 5480 5480 5479 5479 5479 5479 5479 5479 5479 5479 5479 5480 5480 5480 5480 5480 5480 5481 5481 5482 5482 5483 5484 5485 5486 5487 5488 5488 5489 5489 5490 5490
5485 5484 5482 5481 5480 5479 5478 5476 5475 5474 5473 5472 5471 5471 5471 5470 5470 5470 5470 5470 5471 5471 5471 5471 5471 5471 5471 5471 5471 5472 5472 5473 5474 5475 5476 5477 5478 5479 5480 5481 5482 5482 5482 5482
5477 5475 5474 5472 5471 5470 5469 5468 5466 5465 5465 5464 5463 5462 5462 5462 5462 5462 5462 5462 5463 5463 5463 5463 5463 5463 5463 5463 5463 5464 5464 5465 5466 5467 5468 5470 5471 5472 5473 5474 5474 5475 5475 5475
5468 5467 5465 5464 5463 5461 5460 5459 5458 5457 5456 5455 5454 5454 5454 5454 5454 5454 5454 5454 5455 5455 5455 5455 5455 5455 5456 5456 5456 5456 5457 5458 5459 5460 5461 5463 5464 5465 5466 5466 5467 5468 5468 5468
5460 5459 5457 5456 5454 5453 5451 5450 5449 5448 5447 5446 5445 5445 5445 5445 5445 5445 5446 5446 5446 5447 5447 5447 5448 5448 5448 5448 5449 5449 5450 5451 5452 5453 5455 5456 5457 5458 5459 5459 5460 5460 5461 5461
5452 5451 5449 5447 5446 5444 5443 5441 5440 5439 5438 5437 5436 5436 5436 5436 5436 5437 5437 5438 5438 5439 5439 5439 5440 5440 5440 5441 5441 5442 5443 5444 5445 5447 5448 5449 5450 5451 5451 5452 5453 5453 5454 5454
5444 5443 5441 5439 5437 5436 5434 5433 5432 5431 5430 5429 5428 5428 5427 5427 5428 5428 5429 5429 5430 5431 5431 5432 5432 5432 5433 5433 5434 5435 5436 5437 5439 5440 5441 5442 5443 5444 5444 5445 5446 5446 5447 5447
5436 5434 5433 5431 5429 5428 5426 5425 5424 5423 5421 5421 5420 5420 5419 5419 5420 5420 5421 5422 5422 5423 5423 5424 5424 5425 5426 5426 5427 5428 5429 5430 5432 5433 5434 5435 5436 5437 5437 5438 5439 5440 5440 5440
5427 5426 5424 5423 5421 5419 5418 5417 5415 5414 5413 5412 5412 5412 5412 5412 5412 5412 5413 5414 5414 5415 5416 5416 5417 5418 5419 5419 5420 5421 5422 5423 5424 5426 5427 5428 5429 5430 5431 5432 5432 5433 5434 5434
5419 5417 5416 5414 5413 5411 5409 5408 5407 5406 5405 5404 5404 5404 5404 5404 5405 5405 5405 5406 5407 5407 5408 5409 5410 5411 5411 5412 5413 5414 5415 5416 5417 5418 5419 5421 5422 5423 5424 5425 5426 5427 5427 5428